Tracking 21094 objects as of 12-Aug-2020
HD Live streaming from Space Station
objects crossing your sky now
Track the most recent launched group of Starlink satellites

ARIANE 1 DEB

Track ARIANE 1 DEB now!
10-day predictions


NORAD ID: 26533
Int'l Code: 1979-104P
Perigee: 1,015.5 km
Apogee: 21,761.3 km
Inclination: 16.0 °
Period: 392.6 minutes
Semi major axis: 17759 km
RCS: 0.0864 m2 (small)
Launch date: December 24, 1979
Source: European Space Agency (ESA)
Launch site: FRENCH GUIANA (FRGUI)

Note: This is SATELLITE DEBRIS
aabbcc
Your satellite tracking list
Your tracking list is empty




NASA's NSSDC Master Catalog

Two Line Element Set (TLE):
1 26533U 79104P   19176.35733227 -.00000053 +00000-0 +00000-0 0  9995
2 26533 015.9578 264.3356 5840792 198.6761 169.3559 03.66825579259126
Source of the keplerian elements: AFSPC